ARG1448 SABE-SARF

Flight info

Callsign ARG1448
Flight time N/A
Altitude 35000
Route LANDA4B LANDA DCT GUA UL793 SIS DCT DIGET
Aircraft B38M/M-SDE1FGHILORVWXY/HB1

Departure

Time 2026-05-07 21:30
Airport Aeroparque Jorge Newbery (SABE)

Arrival

Time N/A
Airport Formosa National Airport (SARF)
Time Latitude Longitude Altitude Speed Heading
2026-05-07 20:59 -34.55924 -58.41216 29 ft 0 kts 271°
2026-05-07 21:17 -34.55924 -58.41206 30 ft 2 kts 266°
2026-05-07 21:18 -34.55923 -58.41190 9 ft 2 kts 261°
2026-05-07 21:18 -34.55920 -58.41175 37 ft 2 kts 260°
2026-05-07 21:18 -34.55919 -58.41161 30 ft 1 kts 278°
2026-05-07 21:18 -34.55921 -58.41152 29 ft 1 kts 292°
2026-05-07 21:19 -34.55923 -58.41146 29 ft 1 kts 298°
2026-05-07 21:19 -34.55925 -58.41140 29 ft 1 kts 303°
2026-05-07 21:19 -34.55927 -58.41136 29 ft 0 kts 305°
2026-05-07 21:23 -34.55924 -58.41140 29 ft 2 kts 311°
2026-05-07 21:23 -34.55910 -58.41161 29 ft 5 kts 311°
2026-05-07 21:23 -34.55880 -58.41203 29 ft 8 kts 310°
2026-05-07 21:23 -34.55859 -58.41260 29 ft 5 kts 254°
2026-05-07 21:24 -34.55876 -58.41282 29 ft 4 kts 219°
2026-05-07 21:24 -34.55903 -58.41298 29 ft 3 kts 186°
2026-05-07 21:24 -34.55921 -58.41292 29 ft 3 kts 149°
2026-05-07 21:24 -34.55944 -58.41262 29 ft 7 kts 126°
2026-05-07 21:25 -34.55988 -58.41191 29 ft 14 kts 127°
2026-05-07 21:25 -34.56052 -58.41086 29 ft 16 kts 127°
2026-05-07 21:25 -34.56123 -58.40974 29 ft 18 kts 127°
2026-05-07 21:25 -34.56164 -58.40840 29 ft 16 kts 109°
2026-05-07 21:26 -34.56226 -58.40720 29 ft 18 kts 123°
2026-05-07 21:26 -34.56294 -58.40599 29 ft 15 kts 124°
2026-05-07 21:26 -34.56356 -58.40503 29 ft 13 kts 136°
2026-05-07 21:26 -34.56400 -58.40457 29 ft 0 kts 140°
2026-05-07 21:28 -34.56404 -58.40454 29 ft 2 kts 140°
2026-05-07 21:28 -34.56436 -58.40420 29 ft 11 kts 140°
2026-05-07 21:28 -34.56506 -58.40357 29 ft 6 kts 168°
2026-05-07 21:28 -34.56539 -58.40376 28 ft 8 kts 214°
2026-05-07 21:29 -34.56558 -58.40433 27 ft 8 kts 293°
2026-05-07 21:29 -34.56486 -58.40567 28 ft 41 kts 303°
2026-05-07 21:29 -34.56191 -58.41096 30 ft 109 kts 304°
2026-05-07 21:29 -34.55653 -58.42057 57 ft 162 kts 303°
2026-05-07 21:30 -34.54992 -58.43212 708 ft 169 kts 301°
2026-05-07 21:30 -34.54311 -58.44344 1632 ft 167 kts 307°
2026-05-07 21:30 -34.53256 -58.45016 2430 ft 181 kts 341°
2026-05-07 21:30 -34.51957 -58.44874 3097 ft 200 kts 18°
2026-05-07 21:31 -34.50753 -58.43996 3796 ft 203 kts 27°
2026-05-07 21:31 -34.49527 -58.43079 4388 ft 212 kts 27°
2026-05-07 21:31 -34.48228 -58.42111 4912 ft 226 kts 27°
2026-05-07 21:31 -34.46824 -58.41066 5369 ft 248 kts 28°
2026-05-07 21:32 -34.45321 -58.39943 6121 ft 256 kts 27°
2026-05-07 21:32 -34.43759 -58.38840 6858 ft 261 kts 19°
2026-05-07 21:32 -34.42052 -58.38458 7807 ft 250 kts 351°
2026-05-07 21:32 -34.40369 -58.39013 8562 ft 255 kts 336°
2026-05-07 21:33 -34.38655 -58.39745 9198 ft 268 kts 340°
2026-05-07 21:33 -34.36858 -58.40452 10025 ft 270 kts 341°
2026-05-07 21:33 -34.35074 -58.41139 10794 ft 275 kts 341°
2026-05-07 21:33 -34.33232 -58.41837 11565 ft 279 kts 341°
2026-05-07 21:34 -34.31350 -58.42543 12341 ft 284 kts 341°
2026-05-07 21:34 -34.29441 -58.43254 13109 ft 289 kts 341°
2026-05-07 21:34 -34.27507 -58.43973 13847 ft 293 kts 341°
2026-05-07 21:34 -34.25547 -58.44700 14535 ft 298 kts 340°
2026-05-07 21:35 -34.23515 -58.45449 15015 ft 310 kts 340°
2026-05-07 21:35 -34.21470 -58.46203 15786 ft 310 kts 340°
2026-05-07 21:35 -34.19423 -58.46960 16709 ft 306 kts 339°
2026-05-07 21:35 -34.17394 -58.47713 17606 ft 303 kts 339°
2026-05-07 21:36 -34.15375 -58.48459 18366 ft 302 kts 339°
2026-05-07 21:36 -34.13354 -58.49205 18947 ft 306 kts 339°
2026-05-07 21:36 -34.11312 -58.49958 19562 ft 306 kts 340°
2026-05-07 21:36 -34.09276 -58.50710 20264 ft 305 kts 340°
2026-05-07 21:37 -34.07278 -58.51448 20941 ft 304 kts 340°
2026-05-07 21:37 -34.05259 -58.52194 21601 ft 303 kts 341°
2026-05-07 21:37 -34.03233 -58.52943 22248 ft 302 kts 341°
2026-05-07 21:37 -34.01224 -58.53685 22905 ft 302 kts 342°
2026-05-07 21:38 -33.99216 -58.54426 23483 ft 302 kts 342°
2026-05-07 21:38 -33.97222 -58.55162 23940 ft 303 kts 342°
2026-05-07 21:38 -33.95194 -58.55910 24365 ft 306 kts 342°
2026-05-07 21:38 -33.93157 -58.56660 24802 ft 307 kts 342°
2026-05-07 21:39 -33.91086 -58.57359 25219 ft 310 kts 349°
2026-05-07 21:39 -33.88927 -58.57523 25672 ft 312 kts 354°
2026-05-07 21:39 -33.86741 -58.57657 26053 ft 315 kts 354°
2026-05-07 21:39 -33.84551 -58.57773 26517 ft 315 kts 354°
2026-05-07 21:40 -33.82366 -58.57880 27043 ft 313 kts 355°
2026-05-07 21:40 -33.80190 -58.57982 27465 ft 315 kts 355°
2026-05-07 21:40 -33.77985 -58.58082 27567 ft 325 kts 355°
2026-05-07 21:40 -33.75688 -58.58185 27771 ft 331 kts 355°
2026-05-07 21:41 -33.73399 -58.58285 28322 ft 328 kts 355°
2026-05-07 21:41 -33.71123 -58.58385 28873 ft 325 kts 356°
2026-05-07 21:41 -33.68871 -58.58483 29394 ft 323 kts 356°
2026-05-07 21:41 -33.66621 -58.58581 29868 ft 322 kts 356°
2026-05-07 21:42 -33.64357 -58.58681 29991 ft 329 kts 356°
2026-05-07 21:42 -33.62030 -58.58782 30005 ft 339 kts 356°
2026-05-07 21:42 -33.57186 -58.58993 30019 ft 358 kts 356°
2026-05-07 21:43 -33.54654 -58.59102 29947 ft 369 kts 356°
2026-05-07 21:43 -33.52082 -58.59214 30277 ft 368 kts 356°
2026-05-07 21:43 -33.49566 -58.59324 30692 ft 367 kts 356°
2026-05-07 21:43 -33.47015 -58.59434 31105 ft 365 kts 356°
2026-05-07 21:44 -33.44488 -58.59544 31519 ft 363 kts 356°
2026-05-07 21:44 -33.41961 -58.59653 31936 ft 361 kts 355°
2026-05-07 21:44 -33.39458 -58.59761 32343 ft 359 kts 355°
2026-05-07 21:44 -33.36960 -58.59869 32760 ft 358 kts 355°
2026-05-07 21:45 -33.34471 -58.59977 33170 ft 356 kts 355°
2026-05-07 21:45 -33.31995 -58.60084 33589 ft 354 kts 355°
2026-05-07 21:45 -33.29543 -58.60189 33942 ft 352 kts 354°
2026-05-07 21:45 -33.27089 -58.60295 34160 ft 354 kts 354°
2026-05-07 21:46 -33.24655 -58.60399 34353 ft 356 kts 354°
2026-05-07 21:46 -33.22177 -58.60506 34573 ft 357 kts 354°
2026-05-07 21:46 -33.19682 -58.60614 34712 ft 359 kts 354°
2026-05-07 21:46 -33.17197 -58.60720 34712 ft 358 kts 354°
2026-05-07 21:47 -33.12207 -58.60935 34714 ft 357 kts 354°
2026-05-07 21:47 -33.07239 -58.61148 34715 ft 357 kts 354°
2026-05-07 21:48 -33.02281 -58.61361 34717 ft 357 kts 354°
2026-05-07 21:48 -32.97347 -58.61760 34717 ft 357 kts 353°
2026-05-07 21:49 -32.92372 -58.62181 34716 ft 357 kts 353°
2026-05-07 21:49 -32.87419 -58.62594 34719 ft 358 kts 353°
2026-05-07 21:50 -32.82449 -58.63007 34723 ft 358 kts 353°
2026-05-07 21:50 -32.77476 -58.63419 34723 ft 359 kts 353°
2026-05-07 21:51 -32.72478 -58.63833 34725 ft 359 kts 353°
2026-05-07 21:51 -32.67480 -58.64247 34729 ft 359 kts 353°
2026-05-07 21:52 -32.62515 -58.64658 34733 ft 360 kts 353°
2026-05-07 21:52 -32.57520 -58.65070 34733 ft 360 kts 353°
2026-05-07 21:53 -32.52536 -58.65481 34739 ft 360 kts 353°
2026-05-07 21:53 -32.47523 -58.65892 34733 ft 360 kts 353°
2026-05-07 21:54 -32.42544 -58.66300 34738 ft 360 kts 353°
2026-05-07 21:54 -32.37522 -58.66711 34740 ft 360 kts 353°
2026-05-07 21:55 -32.32548 -58.67117 34742 ft 360 kts 353°
2026-05-07 21:55 -32.28379 -58.67457 34741 ft 360 kts 353°
2026-05-07 21:56 -32.22563 -58.67931 34742 ft 360 kts 353°
2026-05-07 21:56 -32.18385 -58.68272 34742 ft 361 kts 353°
2026-05-07 21:57 -32.13360 -58.68680 34743 ft 361 kts 353°
2026-05-07 21:57 -32.08369 -58.69086 34749 ft 362 kts 353°
2026-05-07 21:58 -32.03317 -58.69496 34754 ft 362 kts 353°
2026-05-07 21:58 -31.98282 -58.69904 34748 ft 362 kts 353°
2026-05-07 21:59 -31.93258 -58.70311 34751 ft 362 kts 353°
2026-05-07 21:59 -31.88226 -58.70719 34746 ft 362 kts 353°
2026-05-07 22:00 -31.83191 -58.71125 34746 ft 363 kts 353°
2026-05-07 22:00 -31.78173 -58.71531 34760 ft 363 kts 353°
2026-05-07 22:01 -31.73151 -58.71935 34752 ft 363 kts 353°
2026-05-07 22:01 -31.68098 -58.72343 34763 ft 362 kts 353°
2026-05-07 22:02 -31.63076 -58.72747 34759 ft 362 kts 353°
2026-05-07 22:02 -31.58060 -58.73148 34757 ft 363 kts 353°
2026-05-07 22:03 -31.53003 -58.73553 34762 ft 364 kts 353°
2026-05-07 22:03 -31.47933 -58.73959 34761 ft 365 kts 352°
2026-05-07 22:04 -31.42861 -58.74365 34762 ft 366 kts 352°
2026-05-07 22:04 -31.37760 -58.74773 34760 ft 367 kts 352°
2026-05-07 22:05 -31.32685 -58.75179 34765 ft 368 kts 352°
2026-05-07 22:05 -31.27565 -58.75587 34764 ft 369 kts 352°
2026-05-07 22:06 -31.22438 -58.75996 34769 ft 370 kts 352°
2026-05-07 22:06 -31.17333 -58.76403 34764 ft 371 kts 352°
2026-05-07 22:07 -31.12165 -58.76814 34770 ft 371 kts 352°
2026-05-07 22:07 -31.07019 -58.77223 34762 ft 372 kts 352°
2026-05-07 22:08 -31.01850 -58.77633 34772 ft 373 kts 351°
2026-05-07 22:08 -30.96657 -58.78045 34775 ft 374 kts 351°
2026-05-07 22:09 -30.91467 -58.78476 34777 ft 374 kts 351°
2026-05-07 22:09 -30.86271 -58.78921 34774 ft 375 kts 351°
2026-05-07 22:10 -30.81061 -58.79367 34778 ft 376 kts 351°
2026-05-07 22:10 -30.75819 -58.79814 34772 ft 377 kts 351°
2026-05-07 22:11 -30.70573 -58.80255 34780 ft 378 kts 351°
2026-05-07 22:11 -30.65356 -58.80682 34778 ft 379 kts 351°
2026-05-07 22:12 -30.60064 -58.81113 34780 ft 380 kts 350°
2026-05-07 22:12 -30.54817 -58.81539 34779 ft 381 kts 350°
2026-05-07 22:13 -30.49507 -58.81970 34794 ft 381 kts 350°
2026-05-07 22:13 -30.44211 -58.82399 34785 ft 382 kts 350°
2026-05-07 22:14 -30.38897 -58.82829 34789 ft 382 kts 350°
2026-05-07 22:14 -30.33613 -58.83256 34782 ft 383 kts 350°
2026-05-07 22:15 -30.28283 -58.83687 34785 ft 384 kts 350°
2026-05-07 22:15 -30.22948 -58.84118 34788 ft 384 kts 349°
2026-05-07 22:16 -30.17633 -58.84546 34795 ft 385 kts 349°
2026-05-07 22:16 -30.12286 -58.84976 34794 ft 385 kts 349°
2026-05-07 22:17 -30.06916 -58.85408 34797 ft 386 kts 349°
2026-05-07 22:17 -30.01584 -58.85836 34793 ft 387 kts 349°
2026-05-07 22:18 -29.93515 -58.86483 34791 ft 387 kts 349°
2026-05-07 22:19 -29.88122 -58.86912 34803 ft 388 kts 349°
2026-05-07 22:19 -29.82734 -58.87338 34797 ft 388 kts 349°
2026-05-07 22:20 -29.77333 -58.87766 34808 ft 389 kts 349°
2026-05-07 22:20 -29.71935 -58.88191 34792 ft 389 kts 349°
2026-05-07 22:21 -29.66592 -58.88612 34816 ft 383 kts 347°
2026-05-07 22:21 -29.61283 -58.89031 34795 ft 383 kts 347°
2026-05-07 22:22 -29.55930 -58.89452 34808 ft 385 kts 347°
2026-05-07 22:22 -29.50611 -58.89870 34801 ft 385 kts 347°
2026-05-07 22:23 -29.45253 -58.90291 34809 ft 387 kts 347°
2026-05-07 22:23 -29.39881 -58.90713 34799 ft 387 kts 347°
2026-05-07 22:24 -29.34492 -58.91135 34819 ft 388 kts 347°
2026-05-07 22:24 -29.29088 -58.91558 34803 ft 389 kts 347°
2026-05-07 22:25 -29.23679 -58.91981 34812 ft 390 kts 347°
2026-05-07 22:25 -29.18258 -58.92405 34802 ft 391 kts 347°
2026-05-07 22:26 -29.12817 -58.92829 34815 ft 392 kts 347°
2026-05-07 22:26 -29.07358 -58.93255 34803 ft 399 kts 347°
2026-05-07 22:27 -29.01768 -58.93691 34816 ft 403 kts 347°
2026-05-07 22:27 -28.96164 -58.94127 34810 ft 404 kts 347°
2026-05-07 22:28 -28.90575 -58.94562 34819 ft 405 kts 347°
2026-05-07 22:28 -28.84949 -58.94999 34808 ft 405 kts 347°
2026-05-07 22:29 -28.79303 -58.95438 34823 ft 407 kts 347°
2026-05-07 22:29 -28.73634 -58.95877 34813 ft 407 kts 347°
2026-05-07 22:30 -28.67996 -58.96314 34823 ft 409 kts 347°
2026-05-07 22:30 -28.62304 -58.96754 34814 ft 409 kts 347°
2026-05-07 22:31 -28.56594 -58.97194 34831 ft 411 kts 347°
2026-05-07 22:31 -28.50910 -58.97631 34824 ft 411 kts 347°
2026-05-07 22:32 -28.45188 -58.98070 34835 ft 413 kts 347°
2026-05-07 22:32 -28.39439 -58.98511 34831 ft 413 kts 347°
2026-05-07 22:33 -28.33707 -58.98951 34836 ft 414 kts 347°
2026-05-07 22:33 -28.27950 -58.99391 34828 ft 415 kts 347°
2026-05-07 22:34 -28.22163 -58.99834 34843 ft 416 kts 347°